#timestamp,LO_Frequency,Hit,StdDev 
1459753215.9,286047002.1,N
1459753235.7,286047003.5,N
1459753255.6,286047005.1,N
1459753275.4,286047003.6,N
1459753295.2,286047001.4,N
1459753315.1,286047002.6,N
1459753316.0,286047002.6,N
1459753335.8,286047003.8,N
1459753355.6,286047003.8,N
1459753375.5,286047004.4,N
1459753395.3,286047004.2,N
1459753415.1,286047000.0,N
1459753435.8,286047001.9,N
1459753455.7,286047003.5,N
1459753475.5,286047007.5,N
1459753495.3,286047004.6,N
1459753515.2,286047005.2,N
1459753535.0,286047001.7,N
1459753535.9,286047001.7,N
1459753555.7,286047005.2,N
1459753575.6,286047003.1,N
1459753595.4,286047001.7,N
1459753615.2,286047004.5,N
1459753635.1,286047005.4,N
1459753636.0,286047005.4,N
1459753655.8,286047001.3,N
1459753675.6,286047000.9,N
1459753695.5,286047001.4,N
1459753715.3,286047005.0,N
1459753735.1,286046999.8,N
1459753755.9,286047000.2,N
1459753775.7,286047004.0,N
1459753795.5,286047004.8,N
1459753815.3,286046999.7,N
1459753835.2,286047001.2,N
1459753855.0,286046998.3,N
1459753855.9,286046998.3,N
1459753875.7,286047001.6,N
1459753895.6,286047001.9,N
1459753915.4,286047001.4,N
1459753935.2,286047008.6,Y
1459753955.1,286047004.1,P
1459753956.0,286047004.1,P
1459753975.8,286047003.4,P
1459753995.6,286047002.1,Y
1459754015.5,286046998.0,P
1459754035.3,286046998.9,N
1459754055.1,286047000.2,N
1459754075.9,286047002.6,N
1459754095.7,286046998.2,N
1459754115.5,286046995.4,N
1459754135.4,286046993.8,N
1459754155.2,286046992.8,N
1459754175.0,286046994.7,N
1459754175.9,286046994.7,N
1459754195.8,286046990.9,N
1459754215.6,286046991.3,N
1459754235.4,286046990.1,N
1459754255.3,286046993.4,N
1459754275.1,286046995.7,N
1459754276.0,286046995.7,N
1459754295.8,286046993.4,N
1459754315.7,286046995.3,N
1459754335.5,286046993.3,N
1459754355.3,286046994.0,N
1459754375.1,286046997.3,N
1459754395.9,286046998.6,N
1459754415.7,286046996.7,N
1459754435.5,286046995.4,N
1459754455.4,286046995.3,N
1459754475.2,286046996.3,N
1459754495.0,286046998.0,N
1459754495.9,286046998.0,N
1459754515.8,286046998.7,N
1459754535.6,286046997.3,N
1459754555.4,286046999.3,N
1459754575.3,286047000.7,N
1459754595.1,286046996.6,N
1459754596.0,286046996.6,N
1459754615.8,286046993.9,N
1459754635.7,286046998.0,N
1459754655.5,286046995.4,N
1459754675.3,286046994.3,N
1459754695.1,286046999.2,N
1459754715.9,286046997.7,N
1459754735.7,286046997.7,N
1459754755.5,286046998.0,N
1459754775.4,286046993.4,N
1459754795.2,286046998.0,N
1459754815.0,286046991.7,Y
1459754815.9,286046991.7,P
1459754835.8,286046993.8,N
1459754855.6,286046994.8,N
1459754875.4,286046995.2,N
1459754895.3,286046999.6,N
1459754915.1,286046997.0,N
1459754935.8,286046994.9,N
1459754955.7,286046996.0,N
1459754975.5,286046993.9,N
1459754995.3,286046991.7,Y
1459755015.2,286046997.0,P
1459755035.9,286046999.5,N
1459755055.7,286046999.4,N
1459755075.6,286046999.3,N
1459755095.4,286046998.8,N
1459755115.2,286047000.7,N
1459755135.0,286047001.1,N
1459755135.9,286047001.1,N
1459755155.8,286047001.2,N
1459755175.6,286047000.7,N
1459755195.4,286047002.8,N
1459755215.3,286047000.2,N
1459755235.1,286046999.9,N
1459755255.8,286047001.9,N
1459755275.7,286047003.2,N
1459755295.5,286047000.1,N
1459755315.3,286047000.5,N
1459755335.2,286046998.2,N
1459755355.9,286047000.0,N
1459755375.7,286047004.2,N
1459755395.6,286047000.7,N
1459755415.4,286047002.3,N
1459755435.2,286046999.4,N
1459755455.1,286046998.1,N
1459755456.0,286046998.1,N
1459755475.8,286046998.2,N
1459755495.6,286046997.4,N
1459755515.4,286046997.9,N
1459755535.3,286046993.3,Y
1459755555.1,286046991.7,P
1459755575.9,286046995.4,N
1459755595.7,286046995.3,N
1459755615.5,286046994.1,N
1459755635.3,286046993.7,N
1459755655.2,286046994.1,N
1459755675.9,286046997.8,N
1459755695.7,286046994.9,N
1459755715.6,286046994.9,N
1459755735.4,286046996.7,N
1459755755.2,286046998.5,N
1459755775.1,286046997.3,N
1459755776.0,286046997.3,N
1459755795.8,286046996.1,N
1459755815.6,286046996.7,N
1459755835.5,286046999.3,N
1459755855.3,286046998.2,N
1459755875.1,286046999.4,N
1459755895.8,286046999.4,N
1459755915.7,286046997.1,N
1459755935.5,286046998.5,N
1459755955.3,286046997.3,N
1459755975.2,286046993.4,Y
1459755995.0,286047004.3,P
1459755995.9,286047004.3,N
1459756015.7,286047002.5,N
1459756035.6,286047003.7,N
1459756055.4,286047001.7,N
1459756075.2,286047001.4,N
1459756095.1,286047000.3,N
1459756096.0,286047000.3,N
1459756115.8,286046999.2,N
1459756135.6,286046997.3,N
1459756155.5,286046999.6,N
1459756175.3,286046997.6,N
1459756195.1,286046998.9,N
1459756215.9,286047000.5,N
1459756235.7,286047002.4,N
1459756255.5,286047000.5,N
1459756275.4,286046999.1,N
1459756295.2,286047002.1,N
1459756315.0,286047001.0,N
1459756315.9,286047001.0,N
1459756335.7,286047000.2,N
1459756355.6,286047000.0,N
1459756375.4,286047001.8,N
1459756395.2,286047004.2,N
1459756415.1,286047004.6,N
1459756416.0,286047004.6,N
1459756435.8,286047004.6,N
1459756455.6,286047006.0,N
1459756475.5,286047005.4,N
1459756495.3,286047009.2,Y
1459756515.1,286047003.5,P
1459756535.9,286047003.1,P
1459756555.7,286047007.4,P
1459756575.5,286047007.1,Y
1459756595.4,286047001.4,P
1459756615.2,286047000.5,N
1459756635.0,286047002.2,N
1459756635.9,286047002.2,N
1459756655.8,286047001.5,N
1459756675.6,286047002.9,N
1459756695.4,286047005.8,Y
1459756715.3,286047007.3,P
1459756735.1,286047005.1,N
1459756755.8,286047005.1,N
1459756775.7,286047007.4,Y
1459756795.5,286047001.4,P
